Volver al catálogo

STARLINK-31020

ActivoComunicacionesVLEO
NORAD 58509·PAYLOAD·🇺🇸 United States

Lanzado Dec 7, 2023 desde Cape Canaveral Space Force Station

Loading…

Próximos Pases (próximas 24 horas)

TLE

ActualizadoSource: CelesTrak SupGP

Época: Sep 14, 2026, 21:04 UTC

1 58509C 23191B   26257.87826389 -.00009064  00000+0 -32834-3 0  2576
2 58509  43.0011 121.8493 0001278 262.7345 141.5440 15.27577405    16

Sigue STARLINK-31020 en tiempo real con AllMySat

Download on the App Store